Flint, MI

3:47 AM EDT on October 24, 2017 (GMT -0400)
Bishop International

Weather History for KFNT - October, 2012

Change the Weather History Date:

Friday, October 5, 2012

  Actual Average Record
Temperature  
Mean Temperature 55 °F 53 °F  
Max Temperature 62 °F 64 °F 88 °F (1922)
Min Temperature 47 °F 43 °F 25 °F (2004)
Degree Days  
Heating Degree Days 10 12  
Month to date heating degree days 31 57  
Since 1 July heating degree days 205 267  
Cooling Degree Days 0 0  
Month to date cooling degree days 2 2  
Year to date cooling degree days 855 528  
Growing Degree Days 2 (Base 50)    
Moisture  
Dew Point 44 °F    
Average Humidity 67    
Maximum Humidity 83    
Minimum Humidity 51    
Precipitation  
Precipitation T in 0.10 in 0.87 in (1959)
Month to date precipitation 0.10 0.48  
Year to date precipitation 24.40 24.79  
Snow  
Snow 0.00 in 0.00 in T in ()
Month to date snowfall 0.0 0.0  
Since 1 July snowfall 0.0 0.0  
Since 1 September snowfall 0.0 0.0  
Snow Depth 0.00 in    
Sea Level Pressure  
Sea Level Pressure 30.01 in    
Wind  
Wind Speed 10 mph (WSW)    
Max Wind Speed 18 mph    
Max Gust Speed 24 mph    
Visibility 10 miles    
Events Rain    
T = Trace of Precipitation, MM = Missing Value Source: NWS Daily Summary

Daily Weather History Graph

Daily Weather History Graph

Search for Another Location

Airport or City:

Trip Planner

Search our weather history database for the weather conditions in past years. The results will help you decide how hot, cold, wet, or windy it might be!

Date:

Astronomy

Oct. 05, 2012 Rise Set
Actual Time 7:37 AM EDT 7:08 PM EDT
Civil Twilight 7:09 AM EDT 7:36 PM EDT
Nautical Twilight 6:36 AM EDT 8:09 PM EDT
Astronomical Twilight 6:03 AM EDT 8:42 PM EDT
Moon 10:24 PM EDT (10/5) 12:51 PM EDT (10/5)
Length of Visible Light 12h 27m
Length of Day
11h 31m
Waning Gibbous, 74% of the Moon is Illuminated
Oct 5
Waning Gibbous
Oct 8
Last Quarter
Oct 15
New
Oct 21
First Quarter
Oct 29
Full

Hourly Weather History & Observations

Time (EDT) Temp. Dew Point Humidity Pressure Visibility Wind Dir Wind Speed Gust Speed Precip Events Conditions
12:10 AM 62.6 °F 59.0 °F 88% 29.99 in 10.0 mi WSW 10.4 mph - N/A   Overcast
12:53 AM 62.1 °F 55.9 °F 80% 30.00 in 10.0 mi WSW 17.3 mph 25.3 mph N/A   Overcast
1:53 AM 59.0 °F 52.0 °F 78% 30.01 in 10.0 mi WSW 13.8 mph - 0.00 in   Overcast
2:53 AM 57.9 °F 52.0 °F 81% 30.01 in 10.0 mi WSW 11.5 mph - N/A   Overcast
3:53 AM 55.9 °F 50.0 °F 80% 30.00 in 10.0 mi WSW 6.9 mph - N/A   Mostly Cloudy
4:53 AM 55.9 °F 48.9 °F 77% 30.02 in 10.0 mi West 11.5 mph - N/A   Overcast
5:53 AM 54.0 °F 46.9 °F 77% 30.04 in 10.0 mi West 11.5 mph 20.7 mph N/A   Clear
6:53 AM 51.1 °F 42.1 °F 71% 30.04 in 10.0 mi West 12.7 mph - N/A   Clear
7:53 AM 48.9 °F 42.1 °F 77% 30.05 in 10.0 mi WSW 5.8 mph - N/A   Clear
8:53 AM 50.0 °F 41.0 °F 71% 30.06 in 10.0 mi West 9.2 mph - N/A   Clear
9:53 AM 50.0 °F 39.9 °F 68% 30.07 in 10.0 mi West 13.8 mph - N/A   Clear
10:53 AM 51.8 °F 41.0 °F 67% 30.06 in 10.0 mi West 8.1 mph - N/A   Scattered Clouds
11:03 AM 51.8 °F 41.0 °F 67% 30.06 in 10.0 mi West 12.7 mph - N/A   Mostly Cloudy
11:53 AM 53.6 °F 42.8 °F 67% 30.04 in 10.0 mi West 11.5 mph - N/A   Scattered Clouds
12:53 PM 55.0 °F 39.9 °F 57% 30.04 in 10.0 mi WSW 11.5 mph 18.4 mph N/A   Partly Cloudy
1:53 PM 55.9 °F 41.0 °F 57% 30.02 in 10.0 mi WSW 9.2 mph - N/A   Partly Cloudy
2:53 PM 57.0 °F 39.9 °F 53% 30.01 in 10.0 mi WSW 15.0 mph 23.0 mph N/A   Scattered Clouds
3:53 PM 55.0 °F 39.0 °F 55% 29.99 in 10.0 mi WSW 15.0 mph 19.6 mph 0.00 in Rain Light Rain
4:53 PM 53.1 °F 39.9 °F 61% 29.97 in 10.0 mi SW 6.9 mph - 0.00 in Rain Light Rain
5:53 PM 53.1 °F 41.0 °F 64% 29.98 in 10.0 mi WSW 12.7 mph - N/A   Overcast
6:53 PM 51.1 °F 41.0 °F 68% 29.99 in 10.0 mi SW 10.4 mph - N/A   Overcast
7:53 PM 48.9 °F 42.1 °F 77% 29.98 in 10.0 mi WSW 8.1 mph - 0.00 in Rain Light Rain
8:53 PM 48.0 °F 41.0 °F 77% 29.99 in 10.0 mi WSW 9.2 mph - 0.00 in   Overcast
9:53 PM 48.0 °F 41.0 °F 77% 29.96 in 10.0 mi WSW 6.9 mph - N/A   Overcast
10:53 PM 46.9 °F 41.0 °F 80% 29.96 in 10.0 mi SW 5.8 mph - N/A   Overcast
11:53 PM 46.9 °F 41.0 °F 80% 29.96 in 10.0 mi WSW 8.1 mph - N/A   Overcast